カタログに戻る

STARLINK-3947

運用中通信VLEO
NORAD 52607·PAYLOAD·🇺🇸 United States

打ち上げ May 14, 2022 から Cape Canaveral Space Force Station

Loading…

次のパス (今後24時間)

TLE

最新Source: CelesTrak SupGP

元期: Sep 14, 2026, 20:33 UTC

1 52607C 22052K   26257.85673611 -.00048880  00000+0 -15720-2 0  2573
2 52607  53.1579 144.0793 0001338  91.5474  71.9688 15.31722435    18

AllMySatでSTARLINK-3947をリアルタイム追跡

Download on the App Store